#timestamp,LO_Frequency,Hit,StdDev 
1514912415.5,286046969.4,Y
1514912435.4,286046983.5,P
1514912455.2,286046979.1,P
1514912475.0,286046977.6,P
1514912475.9,286046977.6,Y
1514912495.8,286046996.4,P
1514912515.6,286046994.4,N
1514912535.5,286046992.4,N
1514912555.3,286046991.1,N
1514912575.1,286046989.1,N
1514912595.9,286046987.8,N
1514912615.7,286046986.3,Y
1514912635.6,286046993.6,P
1514912655.4,286046992.8,P
1514912675.2,286046990.9,P
1514912695.1,286046989.9,Y
1514912696.0,286046989.9,P
1514912715.8,286046997.9,N
1514912735.7,286046995.4,N
1514912755.5,286046993.3,N
1514912775.3,286046996.1,N
1514912795.2,286046993.9,N
1514912815.9,286046991.8,Y
1514912835.7,286046998.4,P
1514912855.6,286046999.3,N
1514912875.4,286046996.8,N
1514912895.3,286046997.2,N
1514912915.1,286046997.4,N
1514912916.0,286046997.4,N
1514912935.8,286046995.1,Y
1514912955.7,286046997.2,P
1514912975.5,286046997.3,P
1514912995.4,286046997.6,P
1514913015.2,286046995.0,Y
1514913035.0,286046998.9,P
1514913035.9,286046998.9,N
1514913055.8,286047000.7,N
1514913075.6,286046999.6,N
1514913095.4,286046997.0,N
1514913115.3,286046996.5,N
1514913135.1,286046996.7,N
1514913155.9,286046996.9,N
1514913175.7,286046997.8,N
1514913195.5,286046997.3,N
1514913215.4,286046997.9,N
1514913235.2,286046997.6,N
1514913255.1,286046994.9,Y
1514913256.0,286046994.9,P
1514913275.8,286046998.8,N
1514913295.6,286046999.3,N
1514913315.5,286046998.7,N
1514913335.3,286046998.1,N
1514913355.2,286046999.4,N
1514913375.9,286046999.4,N
1514913395.7,286046996.5,N
1514913415.6,286046997.6,N
1514913435.4,286046996.8,N
1514913455.2,286046997.1,N
1514913475.1,286046997.2,N
1514913476.0,286046997.2,N
1514913495.8,286046999.1,N
1514913515.7,286046997.0,N
1514913535.5,286046996.8,N
1514913555.3,286046999.2,N
1514913575.2,286046999.3,N
1514913595.0,286046999.5,N
1514913595.9,286046999.5,N
1514913615.7,286046996.5,N
1514913635.6,286046999.5,N
1514913655.4,286046996.6,N
1514913675.3,286046999.1,N
1514913695.1,286046998.9,N
1514913715.8,286046998.8,N
1514913735.7,286047001.1,N
1514913755.5,286046998.5,N
1514913775.4,286046998.5,N
1514913795.2,286046998.1,N
1514913815.0,286047000.4,N
1514913815.9,286047000.4,N
1514913835.8,286047002.4,N
1514913855.6,286047002.3,N
1514913875.4,286047001.6,N
1514913895.3,286047001.6,N
1514913915.1,286047002.4,N
1514913935.9,286047001.7,N
1514913955.7,286047001.5,N
1514913975.5,286047002.5,N
1514913995.4,286047002.2,N
1514914015.2,286047001.9,N
1514914035.0,286047001.8,N
1514914036.0,286047001.8,N
1514914055.8,286047003.3,N
1514914075.6,286047003.5,N
1514914095.5,286047003.1,N
1514914115.3,286047005.4,N
1514914135.1,286047003.5,N
1514914155.9,286047006.0,N
1514914175.7,286047005.8,N
1514914195.6,286047004.5,N
1514914215.4,286047004.9,N
1514914235.2,286047007.0,Y
1514914255.1,286047005.9,P
1514914256.0,286047005.9,N
1514914275.8,286047002.9,N
1514914295.7,286047005.1,N
1514914315.5,286047005.5,Y
1514914335.3,286046999.7,P
1514914355.2,286047002.3,N
1514914375.0,286046999.7,N
1514914375.9,286046999.7,N
1514914395.7,286047001.8,N
1514914415.6,286047001.6,N
1514914435.4,286047003.1,N
1514914455.3,286047004.4,N
1514914475.1,286047003.6,N
1514914495.8,286047006.0,Y
1514914515.7,286047002.7,P
1514914535.5,286047001.9,P
1514914555.4,286047001.4,P
1514914575.2,286047002.1,Y
1514914595.0,286046998.2,P
1514914595.9,286046998.2,N
1514914615.8,286047002.2,N
1514914635.6,286047002.8,N
1514914655.5,286047002.8,N
1514914675.3,286047001.6,N
1514914695.1,286047002.8,N
1514914715.9,286047002.3,N
1514914735.7,286047002.3,N
1514914755.6,286047002.7,N
1514914775.4,286047002.3,N
1514914795.2,286046999.9,N
1514914815.1,286047000.5,N
1514914816.0,286047000.5,N
1514914835.8,286047000.1,N
1514914855.7,286046999.7,N
1514914875.5,286047000.1,N
1514914895.3,286047002.6,N
1514914915.2,286047002.7,N
1514914935.9,286046999.7,N
1514914955.7,286047000.4,N
1514914975.6,286047000.2,N
1514914995.4,286046999.7,N
1514915015.3,286047000.1,N
1514915035.1,286046999.9,N
1514915036.0,286046999.9,N
1514915055.8,286047002.5,N
1514915075.7,286047002.6,N
1514915095.5,286047002.2,N
1514915115.3,286047002.3,N
1514915135.2,286047002.3,N
1514915155.0,286047000.4,N
1514915155.9,286047000.4,N
1514915175.8,286046999.8,N
1514915195.6,286047002.8,N
1514915215.4,286047002.7,N
1514915235.3,286047002.4,N
1514915255.1,286047002.7,N
1514915275.8,286047002.0,N
1514915295.7,286047001.1,N
1514915315.5,286047001.2,N
1514915335.4,286047000.8,N
1514915355.2,286047000.7,N
1514915375.0,286046999.5,N
1514915375.9,286046999.5,N
1514915395.8,286046996.5,N
1514915415.6,286046996.6,N
1514915435.5,286046997.5,N
1514915455.3,286046995.1,N
1514915475.1,286046996.2,N
1514915495.9,286046994.9,N
1514915515.7,286046998.0,N
1514915535.5,286046997.1,N
1514915555.4,286046994.9,N
1514915575.2,286046997.5,N
1514915595.1,286046997.8,N
1514915596.0,286046997.8,N
1514915615.8,286046997.2,N
1514915635.6,286046997.6,N
1514915655.5,286046997.4,N
1514915675.3,286046998.0,N
1514915695.1,286046997.7,N
1514915715.9,286046998.0,N
1514915735.7,286046995.5,N
1514915755.6,286046995.7,N
1514915775.4,286046995.2,N
1514915795.2,286046995.5,N
1514915815.1,286046995.6,N
1514915816.0,286046995.6,N
1514915835.8,286046993.9,Y
1514915855.7,286046997.1,P
1514915875.5,286046996.5,P
1514915895.3,286046994.9,P
1514915915.2,286046995.4,Y
1514915935.0,286047001.1,P
1514915935.9,286047001.1,N
1514915955.8,286046999.2,N
1514915975.6,286046998.8,N
1514915995.4,286046999.3,N
